Weather History for Springfield, MO

Change the Weather History Date:

Saturday, April 20, 2013

  Actual Average Record
Temperature  
Mean Temperature 49 °F 57 °F  
Max Temperature 65 °F 69 °F 89 °F (1987)
Min Temperature 33 °F 46 °F 26 °F (1953)
Degree Days  
Heating Degree Days 16 9  
Month to date heating degree days 237 229  
Since 1 July heating degree days 4252 4403  
Cooling Degree Days 0 1  
Month to date cooling degree days 9 13  
Year to date cooling degree days 9 16  
Moisture  
Dew Point 32 °F    
Average Humidity 57    
Maximum Humidity 82    
Minimum Humidity 32    
Precipitation  
Precipitation 0.00 in 0.15 in 1.82 in (1984)
Month to date precipitation 3.20 2.68  
Year to date precipitation 13.31 11.29  
Snow  
Snow 0.00 in - - ()
Month to date snowfall T  
Since 1 July snowfall 11.3  
Snow Depth 0.00 in    
Sea Level Pressure  
Sea Level Pressure 30.16 in    
Wind  
Wind Speed 6 mph (ESE)    
Max Wind Speed 17 mph    
Max Gust Speed 21 mph    
Visibility 10 miles    
Events      
T = Trace of Precipitation, MM = Missing Value Source: NWS Daily Summary

Daily Weather History Graph

Daily Weather History Graph

Search for Another Location

Airport:

Trip Planner

Search our weather history database for the weather conditions in past years. The results will help you decide how hot, cold, wet, or windy it might be!

Date:

Astronomy

Apr. 20, 2013 Rise Set
Actual Time 6:31 AM CDT 7:53 PM CDT
Civil Twilight 6:04 AM CDT 8:20 PM CDT
Nautical Twilight 5:32 AM CDT 8:53 PM CDT
Astronomical Twilight 4:58 AM CDT 9:27 PM CDT
Moon 2:44 PM CDT (4/20) 3:14 AM CDT (4/20)
Length of Visible Light 14h 15m
Length of Day
13h 21m
Waxing Gibbous, 71% of the Moon is Illuminated
Apr 20
Waxing Gibbous
Apr 25
Full
May 2
Last Quarter
May 9
New
May 17
First Quarter

Hourly Weather History & Observations

Time (CDT) Temp. Windchill Dew Point Humidity Pressure Visibility Wind Dir Wind Speed Gust Speed Precip Events Conditions
12:52 AM 37.0 °F - 30.0 °F 76% 30.11 in 10.0 mi Calm Calm - N/A   Clear
1:52 AM 35.1 °F 30.1 °F 28.9 °F 78% 30.11 in 10.0 mi SSE 5.8 mph - N/A   Clear
2:52 AM 34.0 °F 31.0 °F 28.9 °F 82% 30.12 in 10.0 mi South 3.5 mph - N/A   Clear
3:52 AM 37.9 °F - 30.0 °F 73% 30.13 in 10.0 mi Calm Calm - N/A   Clear
4:52 AM 33.1 °F - 28.0 °F 82% 30.14 in 10.0 mi Calm Calm - N/A   Clear
5:52 AM 34.0 °F 28.0 °F 28.9 °F 82% 30.17 in 10.0 mi NE 6.9 mph - N/A   Clear
6:52 AM 37.9 °F 32.1 °F 30.0 °F 73% 30.17 in 10.0 mi ENE 8.1 mph - N/A   Clear
7:52 AM 41.0 °F 35.2 °F 30.0 °F 65% 30.19 in 10.0 mi ENE 9.2 mph - N/A   Clear
8:52 AM 45.0 °F 41.2 °F 30.0 °F 56% 30.21 in 10.0 mi ENE 6.9 mph - N/A   Clear
9:52 AM 48.9 °F - 30.0 °F 48% 30.22 in 10.0 mi East 4.6 mph - N/A   Clear
10:52 AM 52.0 °F - 30.9 °F 45% 30.24 in 10.0 mi East 4.6 mph - N/A   Clear
11:52 AM 55.0 °F - 30.9 °F 40% 30.23 in 10.0 mi Variable 5.8 mph - N/A   Clear
12:52 PM 57.9 °F - 32.0 °F 37% 30.20 in 10.0 mi ESE 5.8 mph - N/A   Clear
1:52 PM 60.1 °F - 33.1 °F 36% 30.19 in 10.0 mi SE 8.1 mph - N/A   Clear
2:52 PM 61.0 °F - 32.0 °F 34% 30.17 in 10.0 mi SSW 5.8 mph - N/A   Clear
3:52 PM 62.1 °F - 32.0 °F 32% 30.14 in 10.0 mi Calm Calm - N/A   Clear
4:52 PM 63.0 °F - 34.0 °F 34% 30.13 in 10.0 mi SW 3.5 mph - N/A   Clear
5:52 PM 63.0 °F - 35.1 °F 35% 30.12 in 10.0 mi SE 4.6 mph - N/A   Clear
6:52 PM 62.1 °F - 36.0 °F 38% 30.12 in 10.0 mi ESE 8.1 mph - N/A   Clear
7:52 PM 60.1 °F - 35.1 °F 39% 30.14 in 10.0 mi East 8.1 mph - N/A   Scattered Clouds
8:52 PM 57.0 °F - 37.9 °F 49% 30.17 in 10.0 mi ESE 5.8 mph - N/A   Overcast
9:52 PM 57.0 °F - 37.0 °F 47% 30.19 in 10.0 mi East 9.2 mph - N/A   Clear
10:52 PM 55.0 °F - 37.9 °F 53% 30.19 in 10.0 mi ESE 6.9 mph - N/A   Clear
11:52 PM 54.0 °F - 37.0 °F 53% 30.19 in 10.0 mi SE 11.5 mph - N/A   Clear